Meteo orario Gojan i Eperm

Oggi, 20 Aprile, Martedi

Tempo Temperatura Precipitazioni Vento Pressione Umidità
00:00 +3°C° 0.2 mm 0 m/s 685 mm Hg 95%
01:00 +4°C° 0 mm 1 m/s 685 mm Hg 95%
02:00 +4°C° 0.2 mm 1 m/s 685 mm Hg 95%
03:00 +4°C° 0.2 mm 1 m/s 685 mm Hg 95%
04:00 +4°C° 0.2 mm 1 m/s 685 mm Hg 94%
05:00 +5°C° 0.1 mm 1 m/s 686 mm Hg 92%
06:00 +5°C° 0.1 mm 1 m/s 686 mm Hg 90%
07:00 +5°C° 0 mm 1 m/s 686 mm Hg 89%
08:00 +7°C° 0.4 mm 1 m/s 687 mm Hg 85%
09:00 +7°C° 0.4 mm 2 m/s 687 mm Hg 80%
10:00 +8°C° 0.4 mm 2 m/s 687 mm Hg 76%
11:00 +8°C° 0.7 mm 3 m/s 687 mm Hg 74%
12:00 +8°C° 0.7 mm 3 m/s 687 mm Hg 72%
13:00 +8°C° 0 mm 3 m/s 687 mm Hg 71%
14:00 +8°C° 0.3 mm 3 m/s 687 mm Hg 70%
15:00 +8°C° 0.3 mm 3 m/s 687 mm Hg 70%
16:00 +8°C° 0.3 mm 3 m/s 687 mm Hg 70%
17:00 +6°C° 0.1 mm 2 m/s 687 mm Hg 77%
18:00 +5°C° 0.1 mm 2 m/s 688 mm Hg 84%
19:00 +4°C° 0.1 mm 2 m/s 688 mm Hg 91%
20:00 +3°C° 0.1 mm 2 m/s 688 mm Hg 92%
21:00 +3°C° 0.1 mm 2 m/s 688 mm Hg 93%
22:00 +3°C° 0.1 mm 2 m/s 689 mm Hg 93%
23:00 +4°C° 0 mm 1 m/s 689 mm Hg 93%

Domani, 21 Aprile, Mercoledi

Tempo Temperatura Precipitazioni Vento Pressione Umidità
00:00 +3°C° 0 mm 1 m/s 689 mm Hg 93%
01:00 +3°C° 0 mm 1 m/s 689 mm Hg 93%
02:00 +3°C° 0 mm 1 m/s 689 mm Hg 92%
03:00 +3°C° 0 mm 1 m/s 689 mm Hg 91%
04:00 +3°C° 0 mm 1 m/s 689 mm Hg 90%
05:00 +4°C° 0 mm 1 m/s 689 mm Hg 86%
06:00 +5°C° 0 mm 1 m/s 689 mm Hg 81%
07:00 +6°C° 0 mm 1 m/s 690 mm Hg 77%
08:00 +7°C° 0 mm 1 m/s 690 mm Hg 72%
09:00 +8°C° 0 mm 2 m/s 690 mm Hg 67%
10:00 +9°C° 0 mm 2 m/s 691 mm Hg 63%
11:00 +9°C° 0.1 mm 2 m/s 691 mm Hg 62%
12:00 +9°C° 0.1 mm 3 m/s 691 mm Hg 61%
13:00 +10°C° 0.1 mm 3 m/s 691 mm Hg 60%
14:00 +10°C° 0 mm 3 m/s 691 mm Hg 61%
15:00 +9°C° 0 mm 3 m/s 690 mm Hg 62%
16:00 +9°C° 0 mm 3 m/s 690 mm Hg 63%
17:00 +8°C° 0 mm 2 m/s 690 mm Hg 71%
18:00 +7°C° 0 mm 1 m/s 690 mm Hg 78%
19:00 +6°C° 0 mm 1 m/s 690 mm Hg 85%
20:00 +6°C° 0 mm 1 m/s 691 mm Hg 85%
21:00 +5°C° 0 mm 1 m/s 691 mm Hg 86%
22:00 +5°C° 0 mm 1 m/s 691 mm Hg 86%
23:00 +5°C° 0 mm 1 m/s 691 mm Hg 86%

Dopodomani, 22 Aprile, Giovedi

Tempo Temperatura Precipitazioni Vento Pressione Umidità
00:00 +5°C° 0 mm 1 m/s 691 mm Hg 86%
01:00 +4°C° 0 mm 1 m/s 691 mm Hg 85%
02:00 +4°C° 0 mm 1 m/s 691 mm Hg 85%
03:00 +4°C° 0 mm 1 m/s 691 mm Hg 84%
04:00 +4°C° 0 mm 1 m/s 691 mm Hg 83%
05:00 +5°C° 0 mm 1 m/s 691 mm Hg 77%
06:00 +7°C° 0 mm 1 m/s 691 mm Hg 71%
07:00 +8°C° 0 mm 1 m/s 691 mm Hg 64%
08:00 +9°C° 0 mm 1 m/s 692 mm Hg 59%
09:00 +10°C° 0 mm 2 m/s 692 mm Hg 53%
10:00 +12°C° 0 mm 2 m/s 692 mm Hg 47%
11:00 +12°C° 0 mm 2 m/s 692 mm Hg 47%
12:00 +13°C° 0 mm 2 m/s 692 mm Hg 47%
13:00 +12°C° 0 mm 3 m/s 692 mm Hg 47%
14:00 +12°C° 0 mm 2 m/s 691 mm Hg 54%
15:00 +10°C° 0 mm 2 m/s 691 mm Hg 60%
16:00 +9°C° 0 mm 2 m/s 691 mm Hg 66%
17:00 +9°C° 0.2 mm 1 m/s 691 mm Hg 73%
18:00 +8°C° 0.2 mm 1 m/s 691 mm Hg 79%
19:00 +8°C° 0.2 mm 1 m/s 691 mm Hg 86%
20:00 +8°C° 0.5 mm 1 m/s 691 mm Hg 88%
21:00 +7°C° 0.5 mm 1 m/s 691 mm Hg 90%
22:00 +7°C° 0.5 mm 1 m/s 691 mm Hg 93%
23:00 +7°C° 0.4 mm 1 m/s 691 mm Hg 93%

23 Aprile, Venerdi

Tempo Temperatura Precipitazioni Vento Pressione Umidità
00:00 +7°C° 0.4 mm 1 m/s 690 mm Hg 93%
01:00 +7°C° 0.4 mm 1 m/s 690 mm Hg 94%
02:00 +8°C° 0.3 mm 1 m/s 690 mm Hg 94%
03:00 +8°C° 0.3 mm 1 m/s 690 mm Hg 93%
04:00 +8°C° 0.3 mm 1 m/s 690 mm Hg 93%
05:00 +8°C° 0.4 mm 1 m/s 690 mm Hg 93%
06:00 +8°C° 0.4 mm 1 m/s 690 mm Hg 93%
07:00 +8°C° 0.4 mm 1 m/s 691 mm Hg 93%
08:00 +8°C° 0.3 mm 1 m/s 691 mm Hg 93%
09:00 +8°C° 0.3 mm 1 m/s 691 mm Hg 93%
10:00 +8°C° 0.3 mm 1 m/s 691 mm Hg 92%
11:00 +8°C° 0.1 mm 1 m/s 691 mm Hg 90%
12:00 +8°C° 0.1 mm 2 m/s 691 mm Hg 89%
13:00 +8°C° 0.1 mm 2 m/s 691 mm Hg 87%
14:00 +8°C° 0 mm 2 m/s 691 mm Hg 86%
15:00 +8°C° 0 mm 2 m/s 691 mm Hg 85%
16:00 +8°C° 0 mm 3 m/s 691 mm Hg 84%
17:00 +8°C° 0 mm 3 m/s 691 mm Hg 87%
18:00 +7°C° 0 mm 3 m/s 691 mm Hg 89%
19:00 +5°C° 0 mm 3 m/s 691 mm Hg 91%
20:00 +5°C° 0 mm 3 m/s 691 mm Hg 91%
21:00 +5°C° 0 mm 3 m/s 691 mm Hg 91%
22:00 +5°C° 0 mm 3 m/s 691 mm Hg 91%
23:00 +4°C° 0 mm 3 m/s 691 mm Hg 91%

24 Aprile, Sabato

Tempo Temperatura Precipitazioni Vento Pressione Umidità
00:00 +4°C° 0 mm 3 m/s 691 mm Hg 91%
01:00 +4°C° 0 mm 3 m/s 690 mm Hg 91%
02:00 +4°C° 0.2 mm 3 m/s 690 mm Hg 90%
03:00 +4°C° 0.2 mm 3 m/s 690 mm Hg 89%
04:00 +4°C° 0.2 mm 3 m/s 690 mm Hg 88%
05:00 +4°C° 0.6 mm 4 m/s 690 mm Hg 86%
06:00 +4°C° 0.6 mm 4 m/s 690 mm Hg 85%
07:00 +3°C° 0.6 mm 5 m/s 690 mm Hg 83%
08:00 +3°C° 0.6 mm 5 m/s 690 mm Hg 83%
09:00 +3°C° 0.6 mm 5 m/s 690 mm Hg 83%
10:00 +4°C° 0.6 mm 4 m/s 690 mm Hg 83%
11:00 +4°C° 1.2 mm 4 m/s 690 mm Hg 86%
12:00 +4°C° 1.2 mm 4 m/s 690 mm Hg 88%
13:00 +3°C° 1.2 mm 4 m/s 689 mm Hg 91%
14:00 +3°C° 0.8 mm 4 m/s 689 mm Hg 91%
15:00 +3°C° 0.8 mm 4 m/s 689 mm Hg 92%
16:00 +3°C° 0.8 mm 4 m/s 689 mm Hg 92%
17:00 +3°C° 0.5 mm 4 m/s 689 mm Hg 93%
18:00 +3°C° 0.5 mm 4 m/s 688 mm Hg 93%
19:00 +3°C° 0.5 mm 4 m/s 688 mm Hg 93%
20:00 +3°C° 0.2 mm 3 m/s 689 mm Hg 93%
21:00 +3°C° 0.2 mm 3 m/s 689 mm Hg 93%
22:00 +3°C° 0.2 mm 3 m/s 689 mm Hg 93%
23:00 +3°C° 0.1 mm 3 m/s 689 mm Hg 93%

25 Aprile, Domenica

Tempo Temperatura Precipitazioni Vento Pressione Umidità
00:00 +3°C° 0.1 mm 3 m/s 689 mm Hg 93%
01:00 +3°C° 0.1 mm 3 m/s 688 mm Hg 93%
02:00 +3°C° 0 mm 3 m/s 688 mm Hg 93%
03:00 +3°C° 0 mm 3 m/s 688 mm Hg 93%
04:00 +2°C° 0 mm 3 m/s 688 mm Hg 93%
05:00 +3°C° 0 mm 3 m/s 688 mm Hg 88%
06:00 +4°C° 0 mm 3 m/s 689 mm Hg 84%
07:00 +4°C° 0 mm 3 m/s 689 mm Hg 79%
08:00 +6°C° 0 mm 4 m/s 689 mm Hg 73%
09:00 +7°C° 0 mm 4 m/s 689 mm Hg 67%
10:00 +8°C° 0 mm 4 m/s 689 mm Hg 61%
11:00 +10°C° 0 mm 4 m/s 689 mm Hg 58%
12:00 +11°C° 0 mm 3 m/s 689 mm Hg 55%
13:00 +12°C° 0 mm 3 m/s 689 mm Hg 52%
14:00 +12°C° 0 mm 3 m/s 689 mm Hg 52%
15:00 +12°C° 0 mm 3 m/s 689 mm Hg 52%
16:00 +12°C° 0 mm 3 m/s 689 mm Hg 52%
17:00 +10°C° 0 mm 2 m/s 689 mm Hg 58%
18:00 +8°C° 0 mm 2 m/s 689 mm Hg 63%
19:00 +7°C° 0 mm 2 m/s 689 mm Hg 68%
20:00 +6°C° 0 mm 2 m/s 689 mm Hg 71%
21:00 +4°C° 0 mm 3 m/s 689 mm Hg 73%
22:00 +4°C° 0 mm 3 m/s 690 mm Hg 75%
23:00 +3°C° 0 mm 3 m/s 690 mm Hg 77%
Mostrare altro

Abbiamo bisogno del tuo consenso

Meteoprog e i nostri fornitori di servizi possono memorizzare e accedere a dati personali come cookie, identificatori di dispositivi o altre tecnologie simili sul tuo dispositivo e possono elaborare tali dati per personalizzare i contenuti e gli annunci, nonché fornire funzionalità dei social media e analizzarne il traffico.

  • Archiviare e/o accedere alle informazioni sul tuo dispositivo

    Cookie, identificatori di dispositivi o altre informazioni possono essere memorizzati o resi accessibili sul tuo dispositivo per le finalità sopra indicate.

  • Annunci e contenuti personalizzati, misurazione di annunci e contenuti, approfondimenti sul pubblico e sviluppo di prodotti

    Gli annunci e i contenuti possono essere personalizzati in base a un profilo. È possibile aggiungere più dati per personalizzare meglio annunci e contenuti. È possibile misurare il rendimento degli annunci e dei contenuti. È possibile ricavare informazioni sul pubblico che ha visto gli annunci e i contenuti. Tali dati possono essere utilizzati per sviluppare o migliorare l'esperienza, i sistemi e il software dell'utente.

Cliccando su “Accetto”, acconsenti all'uso di cookie, identificatori di dispositivo, web beacon o altre tecnologie simili. Puoi modificare le impostazioni nel browser del tuo dispositivo.

Per determinati scopi, è possibile fare affidamento su interessi legali, piuttosto che sul consenso. Puoi approfondire questo argomento consultando la nostra Informativa sulla privacy e sui cookie.